[[[{"header":{"parameterUnit":"kt","parameterCategory":2,"dx":1,"dy":1,"la1":30.253999710083008,"la2":30.299108505249023,"lo1":-89.0895004272461,"lo2":-89.04439544677734,"nx":28,"ny":28,"refTime":"2022-09-28T21:00:00:Z","depth":0,"parameterNumber":1,"parameterNumberName":"U-component_of_WINDS"},"data":[-7.4247,-7.4416,-7.4423,-7.4618,-7.4657,-7.4792,-7.4842,-7.4908,-7.4962,-7.5122,-7.5215,-7.5239,-7.5295,-7.5407,-7.5508,-7.5516,-7.556,-7.5614,-7.5615,-7.5366,-7.5332,-7.5299,-7.5261,-7.5622,-7.5623,-7.5873,-7.5875,-7.5877,-7.4064,-7.4105,-7.421,-7.4317,-7.4407,-7.4359,-7.444,-7.4519,-7.464,-7.4707,-7.4799,-7.494,-7.5052,-7.5091,-7.52,-7.5278,-7.5262,-7.5307,-7.5303,-7.5313,-7.5046,-7.5006,-7.5318,-7.5318,-7.5318,-7.5318,-7.5318,-7.5318,-7.3733,-7.3833,-7.3902,-7.4016,-7.4072,-7.4143,-7.424,-7.4267,-7.4369,-7.4484,-7.4472,-7.4609,-7.4677,-7.4811,-7.4858,-7.4964,-7.4916,-7.4968,-7.4981,-7.4995,-7.5011,-7.4653,-7.4983,-7.4982,-7.4981,-7.498,-7.498,0,-7.3493,-7.3493,-7.3594,-7.3698,-7.3781,-7.3862,-7.3937,-7.3996,-7.3996,-7.4081,-7.4204,-7.4276,-7.4417,-7.4534,-7.4636,-7.4674,-7.4635,-7.463,-7.4667,-7.4677,-7.4673,-7.468,-7.4247,-7.4622,-7.4619,-7.4616,-7.4615,-7.4613,-7.3162,-7.3277,-7.3353,-7.3423,-7.3466,-7.3579,-7.3647,-7.3638,-7.3712,-7.3802,-7.3891,-7.4006,-7.4099,-7.4294,-7.4324,-7.443,-7.4412,-7.4555,-7.4428,-7.4432,-7.4418,-7.4413,-7.4425,-7.4581,-7.4585,-7.4589,-7.4591,0,-7.2976,-7.2987,-7.3168,-7.323,-7.3249,-7.3371,-7.3424,-7.3523,-7.3538,-7.3677,-7.3708,-7.3733,-7.3853,-7.386,-7.3999,-7.3999,-7.42,-7.4178,-7.4176,-7.4174,-7.4304,-7.4293,-7.4721,-7.4778,-7.44,-7.4403,-7.4406,0,-7.2699,-7.2851,-7.2859,-7.2963,-7.3131,-7.3118,-7.3284,-7.3314,-7.3372,-7.3481,-7.3436,-7.3539,-7.3531,-7.3636,-7.3636,-7.38,-7.3826,-7.3837,-7.3836,-7.3843,-7.3842,-7.3884,-7.3869,-7.3825,-7.3823,-7.3821,-7.3819,0,-7.2409,-7.2589,-7.2758,-7.2801,-7.2884,-7.2963,-7.3001,-7.3066,-7.3133,-7.3221,-7.3265,-7.3368,-7.3425,-7.3505,-7.3506,-7.342,-7.3706,-7.3588,-7.3718,-7.3718,-7.3784,-7.378,-7.4154,-7.3816,-7.3816,-7.3815,-7.3814,0,-7.2188,-7.2278,-7.252,-7.2588,-7.2636,-7.2747,-7.2848,-7.2944,-7.3016,-7.3024,-7.3093,-7.3064,-7.3207,-7.3089,-7.3286,-7.3175,-7.3234,-7.3256,-7.3266,-7.3282,-7.3152,-7.3366,-7.3719,-7.3757,-7.3293,-7.3288,-7.3284,0,-7.1854,-7.2102,-7.2093,-7.2323,-7.2439,-7.2381,-7.2504,-7.2569,-7.2589,-7.2689,-7.2711,-7.2826,-7.2739,-7.2776,-7.2872,-7.29,-7.3045,-7.288,-7.3028,-7.3033,-7.3014,-7.3338,-7.339,-7.364,-7.3229,-7.3235,-7.3239,0,-7.1597,-7.1696,-7.1738,-7.1787,-7.1871,-7.1967,-7.2107,-7.2218,-7.2286,-7.2363,-7.2482,-7.2641,-7.2583,-7.2645,-7.2633,-7.2733,-7.2946,-7.2657,-7.2659,-7.2712,-7.32,-7.325,-7.3292,-7.2916,-7.2923,-7.2928,-7.3195,0,-7.1267,-7.1392,-7.1504,-7.1613,-7.1687,-7.1831,-7.1839,-7.1917,-7.1897,-7.1916,-7.2088,-7.2143,-7.2257,-7.2305,-7.2287,-7.2512,-7.2476,-7.2413,-7.2303,-7.2514,-7.2602,-7.2638,-7.217,-7.2167,-7.2164,-7.2162,0,0,-7.0947,-7.1125,-7.1111,-7.1247,-7.131,-7.1249,-7.1402,-7.1455,-7.1566,-7.1611,-7.1548,-7.1782,-7.183,-7.204,-7.2106,-7.2151,-7.2193,-7.2119,-7.2412,-7.244,-7.2466,-7.256,-7.2597,-7.2157,-7.2156,-7.2155,-7.2154,0,-7.0829,-7.0878,-7.1029,-7.1084,-7.1165,-7.1176,-7.1213,-7.1282,-7.1301,-7.1469,-7.1418,-7.1522,-7.1709,-7.1768,-7.1822,-7.2093,-7.2049,-7.2126,-7.227,-7.2384,-7.2416,-7.2444,-7.2543,-7.2578,-7.2148,-7.2148,-7.2148,0,-7.0579,-7.063,-7.0704,-7.0842,-7.0894,-7.1014,-7.0899,-7.103,-7.1118,-7.1045,-7.1214,-7.1246,-7.1324,-7.152,-7.1608,-7.1554,-7.1917,-7.1803,-7.1821,-7.1832,-7.1943,-7.1981,-7.2014,-7.1571,-7.1569,-7.1567,0,0,-7.0476,-7.0591,-7.0643,-7.0817,-7.0854,-7.0873,-7.0937,-7.0925,-7.0997,-7.1026,-7.1066,-7.1137,-7.1246,-7.1318,-7.1421,-7.1634,-7.1651,-7.1732,-7.1759,-7.1781,-7.1804,-7.1921,-7.1959,-7.1559,-7.1559,-7.1559,0,0,-7.0427,-7.0495,-7.0463,-7.0665,-7.0735,-7.0798,-7.0904,-7.0867,-7.096,-7.0945,-7.093,-7.0949,-7.1131,-7.1165,-7.1061,-7.1382,-7.1271,-7.1296,-7.1354,-7.1388,-7.1415,-7.1404,-7.0952,0,0,0,0,0,-7.0311,-7.0486,-7.0456,-7.0492,-7.0666,-7.0814,-7.0837,-7.0829,-7.0751,-7.0835,-7.0863,-7.0811,-7.1106,-7.1014,-7.1049,-7.1166,-7.146,-7.1478,-7.1494,-7.1619,-7.1655,-7.1685,0,0,0,0,0,0,-7.0325,-7.0368,-7.0452,-7.0522,-7.0561,-7.0808,-7.0675,-7.0677,-7.0742,-7.0729,-7.0807,-7.0813,-7.081,-7.0995,-7.1027,-7.1139,-7.0941,-7.1467,-7.1482,-7.1495,-7.1631,-7.166,-7.1686,0,0,0,0,0,-7.0336,-7.0371,-7.0653,-7.052,-7.0554,-7.0585,-7.0668,-7.0669,-7.0719,-7.0763,-7.0767,-7.0707,-7.0813,-7.0839,-7.1014,-7.1124,-7.0919,-7.0931,-7.1477,-7.1489,-7.1499,-7.1645,0,0,0,0,0,0,-7.0344,-7.0373,-7.066,-7.067,-7.0453,-7.0571,-7.0589,-7.0662,-7.0748,-7.0754,-7.0661,-7.0651,-7.0818,-7.0837,-7.0858,-7.112,-7.0901,-7.0914,-7.0921,-7.1486,-7.1495,-7.1503,0,0,0,0,0,0,-7.0354,-7.0382,-7.0665,-7.0581,-7.0582,-7.0559,-7.0575,-7.0722,-7.075,-7.0641,-7.0635,-7.0656,-7.0787,-7.0837,-7.0852,-7.1082,-7.0888,-7.0899,-7.0907,-7.0912,-7.1493,-7.1501,0,0,0,0,0,0,-7.0366,-7.0389,-7.0579,-7.0579,-7.0579,-7.0691,-7.0688,-7.0868,-7.0678,-7.0638,-7.0661,-7.0653,-7.0788,-7.0803,-7.0849,-7.1072,-7.1079,-7.0888,-7.0896,-7.0901,-7.0905,0,0,0,0,0,0,0,-7.0375,-7.0217,-7.06,-7.0577,-7.0577,-7.0763,-7.0766,-7.0768,-7.0676,-7.0669,-7.0662,-7.0656,-7.0821,-7.0834,-7.0847,-7.1065,0,0,-7.0887,-7.0892,0,0,0,0,0,0,0,0,-7.0207,-7.0215,-7.06,-7.0602,-7.0604,-7.0763,-7.0766,-7.0768,-7.0675,-7.0669,-7.0664,-7.0659,-7.0825,-7.0835,-7.0845,0,0,0,0,0,0,0,0,0,0,0,0,0,0,0,-7.0601,-7.0602,0,-7.0764,-7.0766,-7.0767,-7.0674,-7.067,-7.0665,-7.0661,-7.0828,-7.0836,-7.0845,0,0,0,0,0,0,0,0,0,0,0,0,0,0,0,0,0,0,0,0,0,0,0,0,0,0,0,0,0,0,0,0,0,0,0,0,0,0,0,0,0,0,0,0,0,0,0,0,0,0,0,0,0,0,0,0,0,0,0,0,0,0,0,0,0,0,0,0,0]}],[{"header":{"parameterUnit":"kt","parameterCategory":2,"dx":1,"dy":1,"la1":30.253999710083008,"la2":30.299108505249023,"lo1":-89.0895004272461,"lo2":-89.04439544677734,"nx":28,"ny":28,"refTime":"2022-09-28T21:00:00:Z","depth":0,"parameterNumber":2,"parameterNumberName":"V-component_of_WINDS"},"data":[-16.2077,-16.2323,-16.2331,-16.2612,-16.2665,-16.2857,-16.2927,-16.3017,-16.3089,-16.3314,-16.3443,-16.3469,-16.3539,-16.369,-16.3827,-16.3834,-16.3893,-16.3976,-16.3971,-16.3596,-16.3544,-16.3495,-16.344,-16.3989,-16.3989,-16.436,-16.4363,-16.4366,-16.1805,-16.1862,-16.2013,-16.2163,-16.2291,-16.2216,-16.2326,-16.2437,-16.2609,-16.2698,-16.2826,-16.3022,-16.3175,-16.3216,-16.3362,-16.3472,-16.3443,-16.3512,-16.3504,-16.3516,-16.3115,-16.3057,-16.3533,-16.3533,-16.3533,-16.3533,-16.3533,-16.3533,-16.131,-16.1457,-16.1552,-16.1715,-16.1791,-16.1891,-16.2029,-16.2061,-16.2204,-16.2363,-16.2337,-16.2528,-16.2615,-16.2791,-16.2849,-16.2995,-16.2918,-16.2993,-16.3013,-16.3033,-16.3056,-16.2526,-16.3019,-16.3018,-16.3016,-16.3015,-16.3014,0,-16.095,-16.0947,-16.1091,-16.1238,-16.1356,-16.1469,-16.1572,-16.1657,-16.1642,-16.1761,-16.1932,-16.203,-16.2222,-16.238,-16.2516,-16.256,-16.2489,-16.248,-16.2533,-16.2551,-16.2551,-16.2556,-16.1905,-16.2466,-16.2461,-16.2458,-16.2456,-16.2454,-16.0454,-16.0623,-16.0723,-16.0824,-16.0882,-16.1043,-16.1139,-16.1114,-16.1216,-16.1335,-16.1463,-16.1621,-16.1747,-16.2015,-16.2042,-16.2183,-16.215,-16.2365,-16.217,-16.2181,-16.2156,-16.2148,-16.2165,-16.2404,-16.241,-16.2415,-16.2419,0,-16.0174,-16.0182,-16.0445,-16.0525,-16.055,-16.0727,-16.0794,-16.0936,-16.0948,-16.1144,-16.1188,-16.1206,-16.1372,-16.1364,-16.1549,-16.154,-16.1826,-16.1788,-16.1798,-16.1791,-16.1984,-16.1967,-16.2608,-16.2691,-16.2119,-16.2125,-16.2129,0,-15.9754,-15.9975,-15.9974,-16.0126,-16.037,-16.034,-16.0581,-16.0615,-16.069,-16.0844,-16.0763,-16.0908,-16.0875,-16.1019,-16.1005,-16.1237,-16.1271,-16.1278,-16.1272,-16.1287,-16.1287,-16.134,-16.1314,-16.1248,-16.1245,-16.1242,-16.124,0,-15.9317,-15.9574,-15.982,-15.988,-15.9986,-16.0101,-16.015,-16.0232,-16.0325,-16.0443,-16.0502,-16.064,-16.0717,-16.0823,-16.0806,-16.0674,-16.1088,-16.0903,-16.1095,-16.1096,-16.1188,-16.1183,-16.1752,-16.1236,-16.1235,-16.1234,-16.1233,0,-15.8979,-15.9105,-15.946,-15.9547,-15.9615,-15.9775,-15.9912,-16.0047,-16.0139,-16.0143,-16.0234,-16.0178,-16.0379,-16.0197,-16.0473,-16.0308,-16.0387,-16.0411,-16.0424,-16.0444,-16.0241,-16.0566,-16.1106,-16.1164,-16.0459,-16.0453,-16.0447,0,-15.8479,-15.8838,-15.8815,-15.9151,-15.9316,-15.9217,-15.9393,-15.9477,-15.9496,-15.9635,-15.9653,-15.9811,-15.9674,-15.9722,-15.9859,-15.9883,-16.0098,-15.9853,-16.0052,-16.0059,-16.0035,-16.0531,-16.0615,-16.0988,-16.0364,-16.0373,-16.0379,0,-15.8091,-15.8221,-15.8283,-15.8349,-15.8458,-15.8594,-15.8796,-15.8948,-15.9042,-15.9144,-15.9312,-15.9531,-15.9437,-15.9517,-15.9485,-15.9628,-15.9951,-15.9507,-15.9508,-15.9589,-16.0321,-16.04,-16.0463,-15.9897,-15.9907,-15.9915,-16.0313,0,-15.7584,-15.7764,-15.7929,-15.8078,-15.8182,-15.839,-15.8386,-15.8495,-15.8456,-15.8471,-15.8715,-15.8779,-15.8929,-15.8996,-15.8957,-15.9288,-15.9231,-15.9128,-15.8951,-15.9276,-15.9407,-15.9461,-15.8757,-15.8751,-15.8747,-15.8743,0,0,-15.7104,-15.7361,-15.7328,-15.7525,-15.7611,-15.7504,-15.7728,-15.7797,-15.794,-15.8001,-15.7902,-15.8222,-15.8277,-15.8574,-15.8675,-15.8734,-15.8793,-15.8679,-15.9121,-15.9163,-15.9202,-15.9343,-15.9398,-15.8735,-15.8734,-15.8732,-15.8731,0,-15.6919,-15.6985,-15.7207,-15.7279,-15.7385,-15.739,-15.7444,-15.7527,-15.7547,-15.7786,-15.7691,-15.7836,-15.8091,-15.8163,-15.8233,-15.8643,-15.8562,-15.8688,-15.8913,-15.9076,-15.9125,-15.9167,-15.9315,-15.9368,-15.872,-15.8721,-15.8721,0,-15.6538,-15.6603,-15.671,-15.6901,-15.6967,-15.7138,-15.6953,-15.7139,-15.7264,-15.7132,-15.7371,-15.7405,-15.7499,-15.778,-15.7905,-15.7819,-15.8353,-15.8181,-15.8209,-15.8223,-15.8381,-15.8439,-15.849,-15.7812,-15.7809,-15.7806,0,0,-15.6378,-15.6544,-15.6603,-15.686,-15.6909,-15.692,-15.7008,-15.6979,-15.7069,-15.7105,-15.7148,-15.7236,-15.7383,-15.7481,-15.7618,-15.7927,-15.7944,-15.807,-15.8113,-15.8148,-15.8181,-15.8348,-15.8405,-15.7795,-15.7794,-15.7794,0,0,-15.63,-15.6381,-15.6327,-15.6624,-15.6716,-15.6788,-15.6944,-15.6877,-15.7001,-15.6976,-15.6931,-15.6952,-15.7214,-15.725,-15.7094,-15.7555,-15.738,-15.7417,-15.7522,-15.7576,-15.7618,-15.7605,-15.691,0,0,0,0,0,-15.6109,-15.6371,-15.6321,-15.6371,-15.6609,-15.6816,-15.6846,-15.6817,-15.6695,-15.6819,-15.6844,-15.675,-15.7157,-15.7018,-15.7065,-15.7239,-15.7643,-15.767,-15.7695,-15.7904,-15.7961,-15.8008,0,0,0,0,0,0,-15.6128,-15.6189,-15.6314,-15.6398,-15.6451,-15.6806,-15.6593,-15.6593,-15.6681,-15.666,-15.6749,-15.6753,-15.6729,-15.6991,-15.7034,-15.7201,-15.6895,-15.7654,-15.7677,-15.7697,-15.7924,-15.797,-15.8009,0,0,0,0,0,-15.6144,-15.6192,-15.6583,-15.6394,-15.6441,-15.6465,-15.6583,-15.6581,-15.6648,-15.6687,-15.6688,-15.6619,-15.6735,-15.6769,-15.7017,-15.7182,-15.6865,-15.6882,-15.7669,-15.7687,-15.7703,-15.7946,0,0,0,0,0,0,-15.6155,-15.619,-15.6591,-15.6604,-15.6294,-15.6444,-15.6467,-15.6571,-15.6668,-15.6672,-15.6552,-15.6535,-15.6742,-15.6767,-15.6794,-15.7178,-15.6841,-15.6857,-15.6868,-15.7682,-15.7696,-15.7709,0,0,0,0,0,0,-15.6163,-15.6202,-15.6598,-15.6472,-15.647,-15.6425,-15.6446,-15.665,-15.667,-15.6528,-15.6516,-15.6544,-15.67,-15.6768,-15.6788,-15.7108,-15.6822,-15.6838,-15.6849,-15.6856,-15.7694,-15.7705,0,0,0,0,0,0,-15.6179,-15.6212,-15.6469,-15.6468,-15.6465,-15.6606,-15.6604,-15.6849,-15.6567,-15.6525,-15.6541,-15.6529,-15.6703,-15.6723,-15.6784,-15.7096,-15.7105,-15.6822,-15.6833,-15.6841,-15.6846,0,0,0,0,0,0,0,-15.6192,-15.598,-15.6516,-15.6463,-15.6461,-15.6722,-15.6726,-15.6729,-15.6565,-15.6554,-15.6544,-15.6534,-15.6732,-15.6749,-15.6767,-15.7087,0,0,-15.6821,-15.6829,0,0,0,0,0,0,0,0,-15.5965,-15.5976,-15.6516,-15.6519,-15.6522,-15.6723,-15.6726,-15.6729,-15.6563,-15.6554,-15.6546,-15.6538,-15.6736,-15.675,-15.6765,0,0,0,0,0,0,0,0,0,0,0,0,0,0,0,-15.6516,-15.6519,0,-15.6723,-15.6726,-15.6728,-15.6562,-15.6555,-15.6548,-15.6541,-15.674,-15.6752,-15.6764,0,0,0,0,0,0,0,0,0,0,0,0,0,0,0,0,0,0,0,0,0,0,0,0,0,0,0,0,0,0,0,0,0,0,0,0,0,0,0,0,0,0,0,0,0,0,0,0,0,0,0,0,0,0,0,0,0,0,0,0,0,0,0,0,0,0,0,0,0]}]]]